This demonstration page uses our WeatherBlox Daily Observations layout. Learn more.

39.29038, -76.61219

Hourly Observations for October 14, 2019

Temp ( °F °C ) Dew Point ( °F °C ) Humidity (%) Winds ( mph kmh ) Pressure ( in mb ) Visibility ( mi km ) Precip ( " mm )
12:54 am 00:54 undefined 61 16.1 54 12.2 78 78 undefined N/A 30 1016 N/A 0 0
1:54 am 01:54 undefined 60 15.6 55 12.8 84 84 undefined N/A 29.98 1015 N/A 0 0
2:54 am 02:54 undefined 58 14.4 54 12.2 87 87 undefined N/A 29.97 1015 N/A 0 0
3:54 am 03:54 undefined 56 13.3 52 11.1 87 87 undefined N/A 29.96 1015 N/A 0 0
4:54 am 04:54 undefined 55 12.8 51 10.6 87 87 undefined N/A 29.97 1015 N/A 0 0
5:54 am 05:54 undefined 55 12.8 51 10.6 87 87 undefined N/A 29.98 1015 N/A 0 0
6:54 am 06:54 undefined 54 12.2 50 10 87 87 undefined N/A 30.01 1016 N/A 0 0
7:54 am 07:54 undefined 54 12.2 50 10 87 87 undefined N/A 30.02 1017 N/A 0 0
8:54 am 08:54 undefined 58 14.4 51 10.6 78 78 undefined N/A 30.04 1017 N/A 0 0
9:54 am 09:54 undefined 64 17.8 51 10.6 63 63 undefined N/A 30.05 1018 N/A 0 0
10:54 am 10:54 undefined 69 20.6 44 6.7 41 41 undefined N/A 30.04 1017 N/A 0 0
11:54 am 11:54 undefined 70 21.1 42 5.6 37 37 undefined N/A 30.03 1017 N/A 0 0
12:54 pm 12:54 undefined 72 22.2 38 3.3 29 29 undefined N/A 30.02 1017 N/A 0 0
1:54 pm 13:54 undefined 73 22.8 38 3.3 28 28 undefined N/A 29.99 1016 N/A 0 0
2:54 pm 14:54 undefined 75 23.9 37 2.8 25 25 undefined N/A 29.96 1015 N/A 0 0
3:54 pm 15:54 undefined 75 23.9 37 2.8 25 25 undefined N/A 29.95 1014 N/A 0 0
4:54 pm 16:54 undefined 74 23.3 36 2.2 25 25 undefined N/A 29.96 1014 N/A 0 0
5:54 pm 17:54 undefined 73 22.8 38 3.3 28 28 undefined N/A 29.96 1015 N/A 0 0
6:54 pm 18:54 undefined 71 21.7 40 4.4 32 32 undefined N/A 29.98 1015 N/A 0 0
7:54 pm 19:54 undefined 67 19.4 41 5 39 39 undefined N/A 30 1016 N/A 0 0
8:54 pm 20:54 undefined 66 18.9 42 5.6 42 42 undefined N/A 30.01 1016 N/A 0 0
9:54 pm 21:54 undefined 66 18.9 42 5.6 42 42 undefined N/A 30.04 1017 N/A 0 0
10:54 pm 22:54 undefined 65 18.3 39 3.9 39 39 undefined N/A 30.06 1018 N/A 0 0
11:54 pm 23:54 undefined 62 16.7 40 4.4 44 44 undefined N/A 30.07 1018 N/A 0 0

Powered by AerisWeather